Regional Weather Roundup
Issued by NWS Cleveland, OH

Home | Current Version | Previous Version | Graphics & Text | Print | Product List | Glossary On
Versions: 1 2 3 4 5 6 7 8 9 10 11 12 13 14 15 16 17 18 19 20 21 22 23 24 25 26 27 28 29 30 31 32 33 34 35 36 37 38 39 40 41 42 43 44 45 46 47 48 49 50
000
ASUS41 KCLE 251102
RWRCLE
OHIO REGIONAL WEATHER ROUNDUP
NATIONAL WEATHER SERVICE CLEVELAND, OH
700 AM EDT FRI MAY 25 2018

NOTE: "FAIR" INDICATES FEW OR NO CLOUDS BELOW 12,000 FEET WITH NO
SIGNIFICANT WEATHER AND/OR OBSTRUCTIONS TO VISIBILITY.

OHZ001>008-015>018-024>027-034-035-043-044-251200-
   NORTHWEST OHIO

CITY           SKY/WX    TMP DP  RH WIND       PRES   REMARKS
DEFIANCE       FAIR      54  53  97 CALM      30.02F
FINDLAY        FAIR      57  53  86 S3        30.03S
TOLEDO EXPRESS FAIR      55  54  96 CALM      30.01F
TOLEDO EXEC    FAIR      58  51  78 CALM      30.02F
LIMA           FAIR      58  51  78 CALM      30.04S
$$

OHZ009>014-019>023-028>033-038-089-251200-
   NORTHEAST OHIO

CITY           SKY/WX    TMP DP  RH WIND       PRES   REMARKS
CLE-HOPKINS    FAIR      60  51  72 S5        30.05S
CLE-LAKEFRONT  FAIR      62  50  64 SE9       30.02S
CUY CO. ARPT   PTCLDY    59  50  72 S6        30.05
LORAIN-ELYRIA  FAIR      56  49  77 VRB6      30.05S
ASHTABULA      FAIR      56  53  90 S3        30.06S
AKRON-CANTON   FAIR      60  51  72 CALM      30.06S
WOOSTER        FAIR      54  53  97 CALM      30.06F FOG
MANSFIELD      FAIR      55  52  89 S5        30.06S
YOUNGSTOWN     FAIR      54  52  93 E3        30.06S
$$

OHZ042-051>053-060>062-070>072-077>081-251200-
  SOUTHWEST OHIO

CITY           SKY/WX    TMP DP  RH WIND       PRES   REMARKS
CINC-COVINGTON FAIR      60  56  86 CALM      30.04R
CINC-LUNKEN    FAIR      57  57 100 CALM      30.05S
HAMILTON       FAIR      57  57 100 CALM      30.05S
DAYTON         FAIR      58  54  86 CALM      30.05S
WRIGHT-PAT AFB CLEAR     56  52  88 CALM      30.04S
DAYTON GENERAL FAIR      58  54  86 CALM      30.04S
WILMINGTON     FAIR      59  57  93 CALM      30.05S
$$

OHZ036-037-039>041-045>050-054>059-063>069-073>076-082>088-251200-
  CENTRAL AND SOUTHEAST OHIO

CITY           SKY/WX    TMP DP  RH WIND       PRES   REMARKS
COLUMBUS       FAIR      58  53  84 CALM      30.04S
OSU AIRPORT    FAIR      58  55  90 CALM      30.05S
BOLTON FIELD   FAIR      55  54  98 NW3       30.06S
RICKENBACK AFB FAIR      57  57  97 MISG      30.04F
NEWARK         FAIR      55  54  96 CALM      30.05S
MARION         FAIR      56  53  90 SE3       30.06S FOG
LANCASTER      FAIR      56  56 100 CALM      30.06R
ZANESVILLE     FAIR      57  54  89 CALM      30.06S
NEW PHILLY     NOT AVBL
$$




USA.gov is the U.S. government's official web portal to all federal, state and local government web resources and services.